Freeland, MI

2:34 AM EDT on July 30, 2016 (GMT -0400)
MBS International

Weather History for KMBS - August, 2014

Change the Weather History Date:

Wednesday, August 13, 2014

  Actual Average Record
Temperature  
Mean Temperature 65 °F 69 °F  
Max Temperature 77 °F 80 °F 87 °F (2002)
Min Temperature 53 °F 59 °F 50 °F (1997)
Degree Days  
Heating Degree Days 0    
Month to date heating degree days 0  
Since 1 June heating degree days 29  
Since 1 July heating degree days 15  
Cooling Degree Days 0    
Month to date cooling degree days 67  
Year to date cooling degree days 398  
Since 1 June cooling degree days 354  
Growing Degree Days 14 (Base 50)    
Moisture  
Dew Point 50 °F    
Average Humidity 65    
Maximum Humidity 93    
Minimum Humidity 36    
Precipitation  
Precipitation 0.00 in 0.10 in 1.63 in (1996)
Month to date precipitation 3.49 1.33  
Year to date precipitation 20.91 18.54  
Snow  
Snow 0.00 in - - ()
Month to date snowfall 0.0  
Since 1 June snowfall 0.0  
Since 1 July snowfall 0.0  
Snow Depth 0.00 in    
Sea Level Pressure  
Sea Level Pressure 29.93 in    
Wind  
Wind Speed 12 mph (WNW)    
Max Wind Speed 21 mph    
Max Gust Speed 25 mph    
Visibility 10 miles    
Events      
T = Trace of Precipitation, MM = Missing Value Source: NWS Daily Summary

Daily Weather History Graph

Daily Weather History Graph

Search for Another Location

Airport or City:

Trip Planner

Search our weather history database for the weather conditions in past years. The results will help you decide how hot, cold, wet, or windy it might be!

Date:

Astronomy

Aug. 13, 2014 Rise Set
Actual Time 6:38 AM EDT 8:42 PM EDT
Civil Twilight 6:07 AM EDT 9:13 PM EDT
Nautical Twilight 5:29 AM EDT 9:51 PM EDT
Astronomical Twilight 4:47 AM EDT 10:33 PM EDT
Moon 10:18 PM EDT (8/13) 10:13 AM EDT (8/13)
Length of Visible Light 15h 06m
Length of Day
14h 03m
Waning Gibbous, 88% of the Moon is Illuminated
Aug 13
Waning Gibbous
Aug 17
Last Quarter
Aug 25
New
Sep 2
First Quarter
Sep 8
Full

Hourly Weather History & Observations

Time (EDT) Temp. Dew Point Humidity Pressure Visibility Wind Dir Wind Speed Gust Speed Precip Events Conditions
12:26 AM 60.1 °F 54.0 °F 80% 29.87 in 10.0 mi WNW 11.5 mph - N/A   Overcast
12:40 AM 60.1 °F 54.0 °F 80% 29.87 in 10.0 mi West 11.5 mph - N/A   Overcast
12:53 AM 59.0 °F 54.0 °F 83% 29.86 in 10.0 mi West 12.7 mph - N/A   Mostly Cloudy
1:53 AM 57.9 °F 53.1 °F 84% 29.86 in 10.0 mi West 12.7 mph - N/A   Clear
2:53 AM 57.0 °F 52.0 °F 83% 29.87 in 10.0 mi West 10.4 mph - N/A   Clear
3:53 AM 55.9 °F 51.1 °F 84% 29.87 in 10.0 mi West 11.5 mph - N/A   Clear
4:53 AM 55.0 °F 51.1 °F 86% 29.88 in 10.0 mi West 9.2 mph - N/A   Clear
5:53 AM 54.0 °F 51.1 °F 90% 29.89 in 10.0 mi West 12.7 mph - N/A   Clear
6:53 AM 54.0 °F 50.0 °F 86% 29.90 in 10.0 mi WSW 10.4 mph - N/A   Clear
9:53 AM 66.0 °F 52.0 °F 60% 29.94 in 10.0 mi NW 13.8 mph - N/A   Clear
10:53 AM 68.0 °F 51.8 °F 56% 29.95 in 10.0 mi NW 15.0 mph 23.0 mph N/A   Clear
11:53 AM 71.1 °F 51.1 °F 49% 29.95 in 10.0 mi NW 19.6 mph 23.0 mph N/A   Clear
12:53 PM 73.0 °F 48.9 °F 42% 29.95 in 10.0 mi NW 19.6 mph 25.3 mph N/A   Clear
1:53 PM 75.0 °F 50.0 °F 41% 29.95 in 10.0 mi NW 12.7 mph 23.0 mph N/A   Clear
2:53 PM 75.9 °F 48.9 °F 38% 29.95 in 10.0 mi NNW 11.5 mph - N/A   Partly Cloudy
3:53 PM 75.9 °F 46.9 °F 36% 29.95 in 10.0 mi NW 12.7 mph - N/A   Scattered Clouds
4:53 PM 75.0 °F 48.0 °F 38% 29.95 in 10.0 mi NNW 11.5 mph - N/A   Mostly Cloudy
5:53 PM 75.9 °F 48.0 °F 37% 29.96 in 10.0 mi NNW 12.7 mph - N/A   Mostly Cloudy
6:53 PM 75.0 °F 46.9 °F 37% 29.96 in 10.0 mi NW 13.8 mph - N/A   Clear
7:53 PM 71.1 °F 46.9 °F 42% 29.97 in 10.0 mi NNW 9.2 mph - N/A   Clear
8:53 PM 66.0 °F 48.0 °F 52% 29.97 in 10.0 mi NW 9.2 mph - N/A   Clear
9:53 PM 64.0 °F 48.0 °F 56% 29.99 in 10.0 mi NW 10.4 mph - N/A   Clear
10:53 PM 62.1 °F 48.9 °F 62% 30.00 in 10.0 mi NNW 9.2 mph - N/A   Clear